Regional Weather Roundup
Issued by NWS

Home | Current Version | Previous Version | Graphics & Text | Print | Product List | Glossary Off
Versions: 1 2 3 4 5 6 7 8 9 10 11 12 13 14 15 16 17 18 19 20 21 22 23 24 25 26 27

000
ASUS43 KDMX 230107
RWRIA

WEATHER ROUNDUP FOR IOWA
NATIONAL WEATHER SERVICE DES MOINES IA
800 PM CDT TUE APR 22 2014

NOTE: "FAIR" INDICATES FEW OR NO CLOUDS BELOW 12,000 FEET WITH NO
SIGNIFICANT WEATHER AND/OR OBSTRUCTIONS TO VISIBILITY.

* - THESE STATIONS ARE NOT NWS STATIONS...THUS NOT UNDER NWS
QUALITY CONTROL.  THEY ALSO DO NOT REPORT WEATHER SUCH
AS PRECIPITATION OR FOG.

IAZ001>003-012>014-020>022-031>034-043>046-230200-
   NORTHWEST IOWA

CITY           SKY/WX    TMP DP  RH WIND       PRES   REMARKS
CARROLL *      CLOUDY    61  32  33 E8        30.00F
CHEROKEE *     CLOUDY    61  34  36 SE7       29.99S
DENISON *      CLOUDY    61  36  39 E7        29.98S
LE MARS *      MOCLDY    61  36  39 SE8       29.98S
ORANGE CITY *  MOCLDY    63  30  29 S7        29.98S
SHELDON *      CLOUDY    59  34  38 SE8       29.98R
SIOUX CITY     CLOUDY    64  34  32 SE13      29.96S
SPENCER        CLOUDY    60  35  39 SE12      30.00F
STORM LAKE *   CLOUDY    59  34  38 E9        30.00F
$$

IAZ055>058-069>071-079>083-090>094-230200-
   SOUTHWEST IOWA

CITY           SKY/WX    TMP DP  RH WIND       PRES   REMARKS
ATLANTIC *     PTCLDY    63  32  31 SE5       29.99S
AUDUBON *      PTCLDY    61  27  27 E5        30.01F
CLARINDA *     MOCLDY    63  34  34 E5        30.00S
COUNCIL BLFS * MOCLDY    63  37  39 SE9       29.97S
CRESTON *      PTCLDY    59  30  33 E8        30.00F HAZE
HARLAN  *      CLOUDY    63  34  34 SE7       30.02S
LAMONI         CLEAR     61  31  32 E3        30.01F
RED OAK *      CLOUDY    64  36  34 E8        29.98F
SHENANDOAH *   MOCLDY    63  34  34 E7        29.99S
$$

IAZ047>049-059>061-072>074-084-230200-
   CENTRAL IOWA

CITY           SKY/WX    TMP DP  RH WIND       PRES   REMARKS
AMES           CLEAR     58  32  37 NE7       30.01F
ANKENY *       PTCLDY    59  32  36 E5        30.01F
CHARITON *     CLEAR     59  34  38 NE6       30.01S
DES MOINES     PTCLDY    62  30  29 E10       30.01F
GRINNELL*      CLEAR     54  30  40 N6        30.03S
KNOXVILLE *    CLEAR     59  32  36 E5        30.01R
MARSHALLTOWN   CLEAR     55  33  43 N7        30.03S
NEWTON *       CLEAR     57  30  35 NE7       30.03S
PELLA *        CLEAR     57  34  41 NE3       30.03S
PERRY *          N/A     61  28  29 E3        30.02R
$$

IAZ004>006-015-016-023>025-035-036-230200-
   NORTH CENTRAL IOWA

CITY           SKY/WX    TMP DP  RH WIND       PRES   REMARKS
ALGONA *       CLOUDY    59  32  36 E5        30.02S
CLARION *      MOCLDY    55  41  58 E3        30.03R
ESTHERVILLE    MOCLDY    58  34  40 E7        30.01S
FORT DODGE *   CLOUDY    57  36  44 E6        30.03S
MASON CITY     CLEAR     50  37  61 NE8       30.05S
FOREST CITY *  CLEAR     54  34  47 NE5       30.03S
IOWA FALLS *     N/A     55  36  47 CALM      30.04S
$$

IAZ007>011-017>019-026>030-037>042-050>054-066-230200-
   NORTHEAST IOWA

CITY           SKY/WX    TMP DP  RH WIND       PRES   REMARKS
CEDAR RAPIDS   CLEAR     54  31  41 NW7       30.01S
CHARLES CITY * CLEAR     52  37  58 NW7       30.05R
CLINTON *      CLEAR     48  27  43 N9        30.04R
DECORAH *      CLEAR     52  25  35 N8        30.02S
DUBUQUE        CLEAR     50  25  37 N6        30.01S
MONTICELLO *   CLEAR     54  28  37 N6        30.02R
OELWEIN *        N/A    N/A N/A N/A N6        30.03S
WATERLOO       CLEAR     51  34  52 N6        30.03S
$$

IAZ064-065-067-068-078-230200-
   EAST CENTRAL IOWA

CITY           SKY/WX    TMP DP  RH WIND       PRES   REMARKS
DAVENPORT      CLEAR     52  31  44 N7        30.02R
IOWA CITY      CLEAR     58  30  34 N7        30.03R
MT. PLEASANT * CLEAR     55  28  35 N6        30.01S
MUSCATINE *    CLEAR     55  30  38 NW7       30.01S
QUAD CITIES    CLEAR     57  25  29 N7        29.99
$$

IAZ062-063-075>077-085>089-095>099-230200-
   SOUTHEAST IOWA

CITY           SKY/WX    TMP DP  RH WIND       PRES   REMARKS
BURLINGTON     CLEAR     58  28  32 N5        30.00S
FAIRFIELD *    CLEAR     54  32  43 N7        30.02S
FORT MADISON * CLEAR     55  30  38 N5        30.02R
KEOKUK *       CLEAR     59  30  33 CALM      30.00S
OSKALOOSA *      N/A     55  36  47 NE7       30.02S
CENTERVILLE *  CLEAR     57  32  38 NE3       30.03S
OTTUMWA        CLEAR     56  32  40 NE7       30.01F
WASHINGTON *   CLEAR     55  30  38 N8        30.02S
$$

ABBREVIATIONS USED IN REMARKS
   TC - TEMPERATURES IN CELSIUS
  WCI - WIND CHILL INDEX
   HX - HEAT INDEX
  VSB - VISIBILITY
$$




USA.gov is the U.S. government's official web portal to all federal, state and local government web resources and services.